Location: ASU Dark Sky Observatory
(36.2504°N, 81.4125°W)
Time: 07:51:15
(UTC-04:00)

Amateur Radio Satellites - All Passes

Search period start: 01 November 2014 07:21
Search period end: 02 November 2014 06:21
Location: ASU Dark Sky Observatory, 36.2504°N, 81.4125°W

Satellite Date Start Highest point End Downlink Frequencies (MHz)
Time Altitude Azimuth
Uosat F 01 Nov 07:24:09 07:26:45 14° 297° (WNW) 07:29:21 435.120 FM
JAS-2 01 Nov 07:32:29 07:40:09 58° 289° (WNW) 07:47:29 435.800 - 435.900 CW/SSB, 435.910 FM
MaSat-1 01 Nov 07:35:17 07:36:01 11° 57° (ENE) 07:36:45 437.345 MHz
AO-7 01 Nov 07:46:38 07:52:24 21° 304° (NW) 07:58:11 29.400 - 29.500 MHz
Hamsat 01 Nov 08:04:04 08:07:29 24° 290° (WNW) 08:10:55 145.90 MHz
PANSAT 01 Nov 08:05:55 08:08:20 16° 195° (SSW) 08:10:44 not established
SO-67 01 Nov 08:21:18 08:24:43 64° 101° (E) 08:28:07 435.3500 MHz FM
STRAND 1 01 Nov 08:57:10 08:59:39 14° 268° (W) 09:02:09 ?
RS-15 01 Nov 09:06:02 09:14:37 26° 257° (WSW) 09:23:32 29.354 - 29.394 USB, Beacon 29.352 USB
MaSat-1 01 Nov 09:10:13 09:11:14 12° 254° (WSW) 09:12:14 437.345 MHz
HO-68 01 Nov 09:21:13 09:26:50 24° 95° (E) 09:32:23 435.675 MHz FM
JAS-2 01 Nov 09:22:23 09:23:28 10° 307° (NW) 09:24:33 435.800 - 435.900 CW/SSB, 435.910 FM
ISS 01 Nov 09:49:42 09:52:52 46° 134° (SE) 09:56:04 145.800 FM
UKube-1 01 Nov 10:14:38 10:17:39 18° 95° (E) 10:20:39 145.840 MHz, 145.915 MHz
Sapphire 01 Nov 10:43:22 10:45:58 13° 46° (NE) 10:48:34 437.095 MHz 1200 baud AX-25 AFSK
Oscar 11 01 Nov 10:47:52 10:52:00 44° 99° (E) 10:56:07 145.825 FM, Beacon 2401.500 USB
KITSAT 1 01 Nov 10:56:25 11:04:17 60° 112° (ESE) 11:12:11 435.175 FM
SO-50 01 Nov 10:57:48 11:01:56 38° 114° (ESE) 11:06:11 436.795 FM
PCSat 01 Nov 11:03:53 11:07:57 21° 51° (NE) 11:11:59 145.825 MHz
FUNcube-1 01 Nov 11:07:19 11:10:56 28° 97° (E) 11:14:30 145.950 - 145.970 MHz USB
HO-68 01 Nov 11:07:50 11:14:50 57° 290° (WNW) 11:21:48 435.675 MHz FM
ISS 01 Nov 11:27:14 11:29:43 19° 331° (NNW) 11:32:13 145.800 FM
UKube-1 01 Nov 11:49:57 11:53:53 33° 289° (WNW) 11:57:47 145.840 MHz, 145.915 MHz
ZACube-1 01 Nov 12:00:33 12:04:41 61° 285° (WNW) 12:08:45 437.345 MHz
Sapphire 01 Nov 12:24:41 12:30:08 90° 245° (WSW) 12:35:34 437.095 MHz 1200 baud AX-25 AFSK
Oscar 11 01 Nov 12:25:29 12:27:47 14° 294° (WNW) 12:30:04 145.825 FM, Beacon 2401.500 USB
SO-50 01 Nov 12:39:07 12:42:36 22° 311° (NW) 12:46:11 436.795 FM
FUNcube-1 01 Nov 12:44:06 12:47:06 20° 291° (WNW) 12:50:05 145.950 - 145.970 MHz USB
PCSat 01 Nov 12:46:23 12:51:39 53° 248° (WSW) 12:56:53 145.825 MHz
KITSAT 1 01 Nov 12:53:09 13:00:06 31° 311° (NW) 13:07:05 435.175 FM
Oscar 16 01 Nov 12:58:38 13:01:44 16° 64° (ENE) 13:04:51 437.025 USB, Beacon 2401.1428
JAS-1B 01 Nov 13:02:44 13:06:28 18° 63° (ENE) 13:10:13 435.800 - 435.900 CW/SSB
UOSAT-12 01 Nov 13:15:48 13:20:25 87° 300° (WNW) 13:25:09 437.025 FM, 437.400 FM
AO-Echo 01 Nov 13:25:46 13:28:27 15° 63° (ENE) 13:31:10 ?
Uribyol 2 01 Nov 13:33:44 13:36:36 15° 63° (ENE) 13:39:28 436.500 FM
ITAMSAT 1 01 Nov 13:41:32 13:44:47 17° 64° (ENE) 13:48:01 435.822 SSB
Saudisat 1A 01 Nov 13:47:41 13:48:52 11° 43° (NE) 13:50:03 436.775 MHz
Oscar 19 01 Nov 13:48:25 13:53:21 49° 72° (ENE) 13:58:17 437.125 CW, 437.150 USB
AO-27 01 Nov 14:27:22 14:32:21 47° 72° (ENE) 14:37:21 436.795 MHz FM
Oscar 16 01 Nov 14:35:34 14:40:36 55° 259° (W) 14:45:39 437.025 USB, Beacon 2401.1428
Gurwin Techsat 1B 01 Nov 14:49:05 14:53:59 39° 71° (ENE) 14:58:54 435.225 FM
JAS-1B 01 Nov 14:51:08 14:56:45 50° 260° (W) 15:02:16 435.800 - 435.900 CW/SSB
TMSAT-1 01 Nov 14:54:59 14:59:40 33° 69° (ENE) 15:04:21 436.925 FM
AO-7 01 Nov 14:59:41 15:04:39 18° 53° (NE) 15:09:37 29.400 - 29.500 MHz
UOSAT-12 01 Nov 14:59:41 15:01:16 12° 318° (NW) 15:02:52 437.025 FM, 437.400 FM
AO-Echo 01 Nov 15:01:42 15:06:36 61° 259° (W) 15:11:42 ?
Uribyol 2 01 Nov 15:10:20 15:15:30 62° 259° (WSW) 15:20:42 436.500 FM
ITAMSAT 1 01 Nov 15:18:41 15:23:46 55° 259° (W) 15:28:55 435.822 SSB
Saudisat 1A 01 Nov 15:24:36 15:29:03 89° 241° (WSW) 15:33:28 436.775 MHz
Oscar 19 01 Nov 15:29:39 15:32:54 17° 267° (W) 15:36:11 437.125 CW, 437.150 USB
AO-27 01 Nov 16:08:33 16:12:04 18° 266° (W) 16:15:35 436.795 MHz FM
ISS 01 Nov 16:20:46 16:23:28 22° 31° (NNE) 16:26:08 145.800 FM
Gurwin Techsat 1B 01 Nov 16:29:56 16:34:01 23° 265° (W) 16:38:09 435.225 FM
TMSAT-1 01 Nov 16:35:05 16:39:32 27° 264° (W) 16:44:01 436.925 FM
AO-7 01 Nov 16:47:58 16:56:15 86° 72° (ENE) 17:04:34 29.400 - 29.500 MHz
Uosat F 01 Nov 16:54:06 16:59:03 65° 74° (ENE) 17:04:03 435.120 FM
Hamsat 01 Nov 17:20:40 17:22:30 13° 66° (ENE) 17:24:20 145.90 MHz
OPAL 01 Nov 17:32:55 17:34:24 11° 93° (E) 17:35:53 ?
JAS-2 01 Nov 17:40:59 17:47:01 52° 70° (ENE) 17:53:50 435.800 - 435.900 CW/SSB, 435.910 FM
ISS 01 Nov 17:57:07 18:00:14 37° 227° (SW) 18:03:20 145.800 FM
Uosat F 01 Nov 18:36:16 18:38:14 12° 268° (W) 18:40:12 435.120 FM
AO-7 01 Nov 18:44:59 18:49:51 17° 268° (W) 18:54:44 29.400 - 29.500 MHz
SO-67 01 Nov 18:52:41 18:54:30 14° 69° (ENE) 18:56:19 435.3500 MHz FM
KITSAT 1 01 Nov 18:53:24 18:59:07 20° 42° (NE) 19:04:48 435.175 FM
Hamsat 01 Nov 18:54:00 18:58:01 46° 261° (W) 19:02:03 145.90 MHz
OPAL 01 Nov 19:08:47 19:13:42 68° 288° (WNW) 19:18:36 ?
JAS-2 01 Nov 19:27:33 19:32:27 24° 269° (W) 19:37:50 435.800 - 435.900 CW/SSB, 435.910 FM
STRAND 1 01 Nov 19:28:59 19:33:12 25° 96° (E) 19:37:23 ?
SO-50 01 Nov 19:32:03 19:35:44 21° 49° (NE) 19:39:25 436.795 FM
HO-68 01 Nov 19:49:38 19:53:13 15° 56° (NE) 19:56:49 435.675 MHz FM
Oscar 10/S400 01 Nov 20:10:25 20:41:54 62° 196° (SSW) 05:32:30 145.825 - 145.975 CW/USB, Beacon 145.810 USB
AO-40 01 Nov 20:15:31 22:34:57 37° 206° (SSW) 02:34:08 Beacon 2401.320
SO-67 01 Nov 20:24:16 20:27:12 26° 263° (W) 20:30:09 435.3500 MHz FM
KITSAT 1 01 Nov 20:47:33 20:55:41 86° 63° (ENE) 21:03:45 435.175 FM
STRAND 1 01 Nov 21:07:48 21:12:22 33° 291° (WNW) 21:16:55 ?
UKube-1 01 Nov 21:09:02 21:10:48 12° 64° (ENE) 21:12:34 145.840 MHz, 145.915 MHz
SO-50 01 Nov 21:11:50 21:16:30 47° 245° (WSW) 21:21:10 436.795 FM
RS-15 01 Nov 21:11:55 21:22:46 66° 113° (ESE) 21:33:30 29.354 - 29.394 USB, Beacon 29.352 USB
HO-68 01 Nov 21:32:40 21:39:50 84° 73° (ENE) 21:47:03 435.675 MHz FM
Oscar 11 01 Nov 21:40:45 21:44:18 25° 70° (ENE) 21:47:51 145.825 FM, Beacon 2401.500 USB
UOSAT-12 01 Nov 21:48:07 21:52:33 39° 54° (NE) 21:56:53 437.025 FM, 437.400 FM
FUNcube-1 01 Nov 22:01:35 22:04:45 19° 68° (ENE) 22:07:53 145.950 - 145.970 MHz USB
MaSat-1 01 Nov 22:40:23 22:44:12 49° 295° (WNW) 22:47:39 437.345 MHz
UKube-1 01 Nov 22:42:13 22:46:28 54° 259° (W) 22:50:46 145.840 MHz, 145.915 MHz
KITSAT 1 01 Nov 22:45:23 22:50:00 17° 259° (W) 22:54:37 435.175 FM
ZACube-1 01 Nov 22:53:45 22:58:17 75° 76° (ENE) 23:02:44 437.345 MHz
Oscar 11 01 Nov 23:16:55 23:20:23 23° 264° (W) 23:23:51 145.825 FM, Beacon 2401.500 USB
HO-68 01 Nov 23:24:28 23:28:14 15° 269° (W) 23:32:02 435.675 MHz FM
RS-15 01 Nov 23:26:00 23:35:46 36° 316° (NW) 23:45:35 29.354 - 29.394 USB, Beacon 29.352 USB
UOSAT-12 01 Nov 23:28:57 23:32:23 21° 250° (WSW) 23:35:47 437.025 FM, 437.400 FM
FUNcube-1 01 Nov 23:36:43 23:40:51 35° 262° (W) 23:44:57 145.950 - 145.970 MHz USB
Sapphire 02 Nov 01:22:50 01:26:11 17° 104° (ESE) 01:29:32 437.095 MHz 1200 baud AX-25 AFSK
PCSat 02 Nov 01:42:51 01:47:26 29° 108° (ESE) 01:52:03 145.825 MHz
RS-15 02 Nov 01:47:52 01:52:55 14° 349° (N) 01:58:02 29.354 - 29.394 USB, Beacon 29.352 USB
Oscar 19 02 Nov 01:03:24 01:07:16 21° 95° (E) 01:11:06 437.125 CW, 437.150 USB
JAS-1B 02 Nov 01:35:05 01:42:23 52° 101° (E) 01:50:59 435.800 - 435.900 CW/SSB
AO-27 02 Nov 01:43:53 01:47:47 21° 94° (E) 01:51:38 436.795 MHz FM
Oscar 16 02 Nov 01:49:48 01:54:54 65° 102° (ESE) 01:59:59 437.025 USB, Beacon 2401.1428
Sapphire 02 Nov 02:03:47 02:09:04 56° 300° (WNW) 02:14:25 437.095 MHz 1200 baud AX-25 AFSK
Gurwin Techsat 1B 02 Nov 02:08:45 02:12:30 19° 94° (E) 02:16:13 435.225 FM
AO-Echo 02 Nov 02:11:31 02:16:45 55° 100° (E) 02:21:52 ?
TMSAT-1 02 Nov 02:14:32 02:17:39 16° 92° (E) 02:20:46 436.925 FM
Uribyol 2 02 Nov 02:25:48 02:30:55 59° 101° (E) 02:36:00 436.500 FM
PCSat 02 Nov 02:25:49 02:30:42 34° 304° (NW) 02:35:38 145.825 MHz
ITAMSAT 1 02 Nov 02:34:09 02:39:21 67° 102° (ESE) 02:44:30 435.822 SSB
Oscar 19 02 Nov 02:41:58 02:46:41 39° 289° (WNW) 02:51:25 437.125 CW, 437.150 USB
RS-15 02 Nov 03:04:27 03:11:54 19° 27° (NNE) 03:19:29 29.354 - 29.394 USB, Beacon 29.352 USB
PANSAT 02 Nov 03:20:29 03:23:27 21° 170° (S) 03:26:25 not established
AO-27 02 Nov 03:22:32 03:27:24 41° 289° (WNW) 03:32:15 436.795 MHz FM
JAS-1B 02 Nov 03:26:25 03:32:41 32° 293° (WNW) 03:39:54 435.800 - 435.900 CW/SSB
Oscar 16 02 Nov 03:31:09 03:33:39 14° 297° (WNW) 03:36:10 437.025 USB, Beacon 2401.1428
OPAL 02 Nov 03:44:24 03:47:44 18° 63° (ENE) 03:51:03 ?
Gurwin Techsat 1B 02 Nov 03:47:35 03:52:38 46° 288° (WNW) 03:57:40 435.225 FM
AO-Echo 02 Nov 03:51:38 03:54:59 17° 296° (WNW) 03:58:19 ?
TMSAT-1 02 Nov 03:52:42 03:57:52 55° 287° (WNW) 04:03:01 436.925 FM
AO-7 02 Nov 03:53:04 04:00:27 34° 98° (E) 04:07:47 29.400 - 29.500 MHz
Uosat F 02 Nov 04:05:08 04:09:13 24° 96° (E) 04:13:16 435.120 FM
Uribyol 2 02 Nov 04:06:52 04:09:52 16° 296° (WNW) 04:12:51 436.500 FM
ITAMSAT 1 02 Nov 04:15:38 04:18:14 14° 297° (WNW) 04:20:49 435.822 SSB
Saudisat 1A 02 Nov 04:28:28 04:32:36 44° 115° (ESE) 04:36:47 436.775 MHz
PANSAT 02 Nov 04:59:56 05:03:07 25° 183° (S) 05:06:18 not established
RS-15 02 Nov 05:16:08 05:27:13 61° 55° (NE) 05:38:44 29.354 - 29.394 USB, Beacon 29.352 USB
OPAL 02 Nov 05:21:15 05:26:12 50° 258° (WSW) 05:31:07 ?
JAS-2 02 Nov 05:37:33 05:45:22 63° 100° (E) 05:52:44 435.800 - 435.900 CW/SSB, 435.910 FM
Hamsat 02 Nov 05:42:05 05:45:58 34° 98° (E) 05:49:52 145.90 MHz
STRAND 1 02 Nov 05:42:25 05:46:46 29° 68° (ENE) 05:51:09 ?
Uosat F 02 Nov 05:43:30 05:48:00 33° 291° (WNW) 05:52:28 435.120 FM
AO-7 02 Nov 05:45:26 05:53:19 49° 295° (WNW) 06:01:13 29.400 - 29.500 MHz
Saudisat 1A 02 Nov 06:09:16 06:12:22 19° 312° (NW) 06:15:28 436.775 MHz
